Flag for Poland Weather past 2 weeks in Ruda Śląska, Poland

Now
54 °F

Clear.


Feels Like: 54 °F
Forecast: 46 / 77 °F
Wind: 2 mph from Northeast

Location: Katowice Airport

Current Time: Jul 31, 2015 at 10:16:59 PM

Latest Report: Jul 31, 2015 at 10:00 PM


Visibility: 10 mi

Pressure: 30.09 "Hg

Humidity: 63%

Dew point: 41 °F

Location of Ruda ŚląskaLocation

Historic Weather in Ruda Śląska — Graph

°F

Ruda Śląska temperature yesterday

Maximum temperature yesterday: 72 °F (at 2:00 PM)
Minimum temperature yesterday: 48 °F (at 11:30 PM)
Average temperature yesterday: 62 °F

Past Weeks' High & Low Weather Summary

 TemperatureHumidityPressure
High91 °F (Jul 25, 1:00 PM)100% (Jul 19, 2:00 AM)30.07 "Hg (Jul 19, 2:00 AM)
Low41 °F (Jul 31, 3:30 AM)27% (Jul 30, 4:30 PM)29.65 "Hg (Jul 27, 6:30 PM)
Average70 °F63%29.90 "Hg
* Reported Jul 16 9:00 PM — Jul 31 9:00 PM, Ruda Śląska, Weather by CustomWeather, © 2015

Note: Actual official high and low records may vary slightly from our data, if they occured in-between our weather recording intervals... More about our weather records

Advertising

Ruda Śląska weather history for previous 24 hours

 ConditionsComfort  
Time TempWeatherWind HumidityBarometerVisibility
9:00 PM
Fri, Jul 31
59 °FSunny.3 mph51%30.07 "Hg10 mi
8:30 PM63 °FPassing clouds.3 mph42%30.07 "HgN/A
8:00 PM64 °FSunny.5 mph40%30.07 "Hg10 mi
7:30 PM66 °FPassing clouds.7 mph37%30.07 "HgN/A
7:00 PM68 °FSunny.9 mph35%30.07 "Hg10 mi
6:30 PM68 °FPassing clouds.12 mph33%30.04 "HgN/A
6:00 PM70 °FSunny.12 mph33%30.04 "Hg10 mi
5:30 PM70 °FPassing clouds.8 mph31%30.04 "HgN/A
5:00 PM70 °FPassing clouds.12 mph33%30.04 "HgN/A
4:30 PM70 °FPassing clouds.12 mph33%30.04 "HgN/A
4:00 PM68 °FPassing clouds.9 mph35%30.04 "HgN/A
3:30 PM68 °FPassing clouds.13 mph38%30.04 "HgN/A
3:00 PM68 °FPassing clouds.10 mph35%30.04 "HgN/A
2:30 PM70 °FPassing clouds.14 mph35%30.04 "HgN/A
2:00 PM68 °FPassing clouds.14 mph40%30.07 "HgN/A
1:30 PM66 °FPassing clouds.13 mph43%30.07 "HgN/A
1:00 PM68 °FPassing clouds.12 mph38%30.07 "HgN/A
12:30 PM66 °FScattered clouds.13 mph43%30.07 "HgN/A
12:00 PM68 °FScattered clouds.12 mph43%30.07 "HgN/A
11:30 AM66 °FScattered clouds.10 mph46%30.07 "HgN/A
11:00 AM66 °FPassing clouds.8 mph46%30.07 "HgN/A
10:30 AM64 °FPassing clouds.10 mph46%30.07 "HgN/A
10:00 AM63 °FPassing clouds.8 mph52%30.07 "HgN/A
9:30 AM61 °FPassing clouds.7 mph55%30.07 "HgN/A
9:00 AM57 °FPassing clouds.7 mph63%30.07 "HgN/A
8:30 AM55 °FPassing clouds.3 mph67%30.07 "HgN/A
8:00 AM54 °FSunny.2 mph72%30.04 "Hg10 mi
7:30 AM50 °FSunny.2 mph82%30.04 "Hg10 mi
7:00 AM50 °FSunny.2 mph76%30.04 "Hg10 mi
6:30 AM48 °FSunny.5 mph82%30.04 "Hg10 mi
6:00 AM46 °FClear.3 mph87%30.01 "Hg10 mi
5:30 AM46 °FClear.2 mph87%30.01 "Hg10 mi
5:00 AM46 °FClear.2 mph82%30.01 "Hg10 mi
4:30 AM43 °FClear.1 mph93%30.01 "Hg10 mi
4:00 AM43 °FClear.2 mph87%30.01 "Hg10 mi
3:30 AM41 °FClear.2 mph87%30.01 "Hg10 mi
3:00 AM45 °FClear.5 mph87%29.98 "Hg10 mi
2:30 AM45 °FClear.5 mph87%29.98 "Hg10 mi
2:00 AM45 °FClear.2 mph87%29.98 "Hg10 mi
1:30 AM45 °FClear.2 mph87%29.98 "Hg10 mi
1:00 AM46 °FClear.2 mph82%29.98 "Hg10 mi
12:30 AM46 °FClear.2 mph82%29.98 "Hg10 mi
12:00 AM48 °FClear.2 mph76%29.98 "Hg10 mi
11:30 PM
Thu, Jul 30
48 °FClear.1 mph76%29.98 "Hg10 mi
11:00 PM52 °FClear.2 mph67%29.95 "Hg10 mi
10:30 PM54 °FClear.2 mph63%29.95 "Hg10 mi
10:00 PM57 °FClear.2 mph55%29.95 "Hg10 mi
Weather by CustomWeather, © 2015

See weather overviewHow to use our weather pages